CAPE
7 7 6 6 5 3 2 1 1 3 2 2 2 1 1 2 0 0 0 0 0 0 0 0 0 0 0 0 0 0 0 0 0 0 0 0 0 0 0 0 0 0 0 0 0
8 8 6 7 5 4 1 2 3 4 4 3 2 1 2 0 0 0 0 0 0 0 0 0 0 0 0 0 0 0 0 0 0 0 0 0 0 0 0 0 0 0 0 0 0
8 8 7 6 6 4 3 2 4 4 3 2 1 1 1 0 0 0 0 0 0 0 0 0 0 0 0 0 0 0 0 0 0 0 0 0 0 0 0 0 0 0 0 0 0
9 9 7 8 7 3 3 3 3 2 2 1 0 0 1 0 0 0 0 0 0 0 0 0 0 0 0 0 0 0 0 0 0 0 0 0 0 0 0 0 0 0 0 0 0
9 9 9 7 5 4 3 4 4 2 1 0 0 0 0 0 0 0 0 0 0 0 0 0 0 0 0 0 0 0 0 0 0 0 0 0 0 0 0 0 0 0 0 0 0
9 10 8 5 3 3 2 2 2 1 1 0 0 0 0 0 0 0 0 0 0 0 0 0 0 0 0 0 0 0 0 0 0 0 0 0 0 0 0 0 0 0 0 0 0
10 9 6 4 2 2 1 0 0 0 0 0 0 0 0 0 0 0 0 0 0 0 0 0 0 0 0 0 0 0 0 0 0 0 0 0 0 0 0 0 0 0 0 0 0
8 6 3 2 1 0 0 0 0 0 0 0 0 0 0 0 0 0 0 0 0 0 0 0 0 0 0 0 0 0 0 0 0 0 0 0 0 0 0 0 0 0 0 0 0
5 4 2 1 0 0 0 0 0 0 0 0 0 0 0 0 0 0 0 0 0 0 0 0 0 0 0 0 0 0 0 0 0 0 0 0 0 0 0 0 0 0 0 0 0
2 1 0 0 0 0 0 0 0 0 0 0 0 0 0 0 0 0 0 0 0 0 0 0 0 0 0 0 0 0 0 0 0 0 0 0 0 0 0 0 0 0 0 0 0
0 0 0 0 0 0 0 0 0 0 0 0 0 0 0 0 0 0 0 0 0 0 0 0 0 0 0 0 0 0 0 0 0 0 0 0 0 0 0 0 0 0 0 0 0
0 0 0 0 0 0 0 0 0 0 0 0 0 0 0 0 0 0 0 0 0 0 0 0 0 0 0 0 0 0 0 0 0 0 0 0 0 0 0 0 0 0 0 0 0
0 0 0 0 0 0 0 0 0 0 0 0 0 0 0 0 0 0 0 0 0 0 0 0 0 0 0 0 0 0 0 0 0 0 0 0 0 0 0 0 0 0 0 0 0
0 0 0 0 0 0 0 0 0 0 0 0 0 0 0 0 0 0 0 0 0 0 0 0 0 0 0 0 0 0 0 0 0 0 0 0 0 0 0 0 0 0 0 0 0
0 0 0 0 0 0 0 0 0 0 0 0 0 0 0 0 0 0 0 0 0 0 0 0 0 0 0 0 0 0 0 0 0 0 0 0 0 0 0 0 0 0 0 0 0
0 0 0 0 0 0 0 0 0 0 0 0 0 0 0 0 0 0 0 0 0 0 0 0 0 0 0 0 0 0 0 0 0 0 0 0 0 0 0 0 0 0 0 0 0
0 0 0 0 0 0 0 0 0 0 0 0 0 0 0 0 0 0 0 0 0 0 0 0 0 0 0 0 0 0 0 0 0 0 0 0 0 0 0 0 0 0 0 0 0
0 0 0 0 0 0 0 0 0 0 0 0 0 0 0 0 0 0 0 0 0 0 0 0 0 0 0 0 0 0 0 0 0 0 0 0 0 0 0 0 0 0 0 0 0
0 0 0 0 0 0 0 0 0 0 0 0 0 0 0 0 0 0 0 0 0 0 0 0 0 0 0 0 0 0 0 0 0 0 0 0 0 0 0 0 0 0 0 0 0
0 0 0 0 0 0 0 0 0 0 0 0 0 0 0 0 0 0 0 0 0 0 0 0 0 0 0 0 0 0 0 0 0 0 0 0 0 0 0 0 0 0 0 0 0
0 0 0 0 0 0 0 0 0 0 0 0 0 0 0 0 0 0 0 0 0 0 0 0 0 0 0 0 0 0 0 0 0 0 0 0 0 0 0 0 0 0 0 0 0
0 0 0 0 0 0 0 0 0 0 0 0 0 0 0 0 0 0 0 0 0 0 0 0 0 0 0 0 0 0 0 0 0 0 0 0 0 0 0 0 0 0 0 0 0
0 0 0 0 0 0 0 0 0 0 0 0 0 0 0 0 0 0 0 0 0 0 0 0 0 0 0 0 0 0 0 0 0 0 0 0 0 0 0 0 0 0 0 0 0
0 0 0 0 0 0 0 0 0 0 0 0 0 0 0 0 0 0 0 0 0 0 0 0 0 0 0 0 0 0 0 0 0 0 0 0 0 0 0 0 0 0 0 0 0
0 0 0 0 0 0 0 0 0 0 0 0 0 0 0 0 0 0 0 0 0 0 0 0 0 0 0 0 0 0 0 0 0 0 0 0 0 0 0 0 0 0 0 0 0
0 0 0 0 0 0 0 0 0 0 0 0 0 0 0 0 0 0 0 0 0 0 0 0 0 0 0 0 0 0 0 0 0 0 0 0 0 0 0 0 0 0 0 0 0
0 0 0 0 0 0 0 0 0 0 0 0 0 0 0 0 0 0 0 0 0 0 0 0 0 0 0 0 0 0 0 0 0 0 0 0 0 0 0 0 0 0 0 0 0
CIN
0 0 0 0 0 0 0 0 0 0 0 0 0 0 0 0 0 0 0 0 0 0 0 0 0 0 0 0 0 0 0 0 0 0 0 0 0 0 0 0 0 0 0 0 0
0 0 0 0 0 0 0 0 0 0 0 0 0 0 0 0 0 0 0 0 0 0 0 0 0 0 0 0 0 0 0 0 0 0 0 0 0 0 0 0 0 0 0 0 0
0 0 0 0 0 0 0 0 0 0 0 0 0 0 0 0 0 0 0 0 0 0 0 0 0 0 0 0 0 0 0 0 0 0 0 0 0 0 0 0 0 0 0 0 0
0 0 0 0 0 0 0 0 0 0 0 0 0 0 0 0 0 0 0 0 0 0 0 0 0 0 0 0 0 0 0 0 0 0 0 0 0 0 0 0 0 0 0 0 0
0 0 0 0 0 0 0 0 0 0 0 0 0 0 0 0 0 0 0 0 0 0 0 0 0 0 0 0 0 0 0 0 0 0 0 0 0 0 0 0 0 0 0 0 0
0 0 0 0 0 0 0 0 0 0 0 0 0 0 0 0 0 0 0 0 0 0 0 0 0 0 0 0 0 0 0 0 0 0 0 0 0 0 0 0 0 0 0 0 0
0 0 0 0 0 0 0 0 0 0 0 0 0 0 0 0 0 0 0 0 0 0 0 0 0 0 0 0 0 0 0 0 0 0 0 0 0 0 0 0 0 0 0 0 0
0 0 0 0 0 0 0 0 0 0 0 0 0 0 0 0 0 0 0 0 0 0 0 0 0 0 0 0 0 0 0 0 0 0 0 0 0 0 0 0 0 0 0 0 0
0 0 0 0 0 0 0 0 0 0 0 0 0 0 0 0 0 0 0 0 0 0 0 0 0 0 0 0 0 0 0 0 0 0 0 0 0 0 0 0 0 0 0 0 0
0 0 0 0 0 0 0 0 0 0 0 0 0 0 0 0 0 0 0 0 0 0 0 0 0 0 0 0 0 0 0 0 0 0 0 0 0 0 0 0 0 0 0 0 0
0 0 0 0 0 0 0 0 0 0 0 0 0 0 0 0 0 0 0 0 0 0 0 0 0 0 0 0 0 0 0 0 0 0 0 0 0 0 0 0 0 0 0 0 0
0 0 0 0 0 0 0 0 0 0 0 0 0 0 0 0 0 0 0 0 0 0 0 0 0 0 0 0 0 0 0 0 0 0 0 0 0 0 0 0 0 0 0 0 0
0 0 0 0 0 0 0 0 0 0 0 0 0 0 0 0 0 0 0 0 0 0 0 0 0 0 0 0 0 0 0 0 0 0 0 0 0 0 0 0 0 0 0 0 0
0 0 0 0 0 0 0 0 0 0 0 0 0 0 0 0 0 0 0 0 0 0 0 0 0 0 0 0 0 0 0 0 0 0 0 0 0 0 0 0 0 0 0 0 0
0 0 0 0 0 0 0 0 0 0 0 0 0 0 0 0 0 0 0 0 0 0 0 0 0 0 0 0 0 0 0 0 0 0 0 0 0 0 0 0 0 0 0 0 0
0 0 0 0 0 0 0 0 0 0 0 0 0 0 0 0 0 0 0 0 0 0 0 0 0 0 0 0 0 0 0 0 0 0 0 0 0 0 0 0 0 0 0 0 0
0 0 0 0 0 0 0 0 0 0 0 0 0 0 0 0 0 0 0 0 0 0 0 0 0 0 0 0 0 0 0 0 0 0 0 0 0 0 0 0 0 0 0 0 0
0 0 0 0 0 0 0 0 0 0 0 0 0 0 0 0 0 0 0 0 0 0 0 0 0 0 0 0 0 0 0 0 0 0 0 0 0 0 0 0 0 0 0 0 0
0 0 0 0 0 0 0 0 0 0 0 0 0 0 0 0 0 0 0 0 0 0 0 0 0 0 0 0 0 0 0 0 0 0 0 0 0 0 0 0 0 0 0 0 0
0 0 0 0 0 0 0 0 0 0 0 0 0 0 0 0 0 0 0 0 0 0 0 0 0 0 0 0 0 0 0 0 0 0 0 0 0 0 0 0 0 0 0 0 0
0 0 0 0 0 0 0 0 0 0 0 0 0 0 0 0 0 0 0 0 0 0 0 0 0 0 0 0 0 0 0 0 0 0 0 0 0 0 0 0 0 0 0 0 0
0 0 0 0 0 0 0 0 0 0 0 0 0 0 0 0 0 0 0 0 0 0 0 0 0 0 0 0 0 0 0 0 0 0 0 0 0 0 0 0 0 0 0 0 0
0 0 0 0 0 0 0 0 0 0 0 0 0 0 0 0 0 0 0 0 0 0 0 0 0 0 0 0 0 0 0 0 0 0 0 0 0 0 0 0 0 0 0 0 0
0 0 0 0 0 0 0 0 0 0 0 0 0 0 0 0 0 0 0 0 0 0 0 0 0 0 0 0 0 0 0 0 0 0 0 0 0 0 0 0 0 0 0 0 0
0 0 0 0 0 0 0 0 0 0 0 0 0 0 0 0 0 0 0 0 0 0 0 0 0 0 0 0 0 0 0 0 0 0 0 0 0 0 0 0 0 0 0 0 0
0 0 0 0 0 0 0 0 0 0 0 0 0 0 0 0 0 0 0 0 0 0 0 0 0 0 0 0 0 0 0 0 0 0 0 0 0 0 0 0 0 0 0 0 0
0 0 0 0 0 0 0 0 0 0 0 0 0 0 0 0 0 0 0 0 0 0 0 0 0 0 0 0 0 0 0 0 0 0 0 0 0 0 0 0 0 0 0 0 0
Wind_Speed
15 16 16 16 16 16 16 16 16 15 14 14 14 14 15 16 20 5 2 4 6 10 10 9 7 1 4 2 3 3 3 5 6 9 5 4 8 5 2 11 14 8 10 10 9
15 15 16 16 16 16 15 15 14 13 13 14 14 14 14 15 6 7 3 6 8 11 9 4 4 5 3 1 2 2 4 7 6 8 5 7 9 4 3 13 8 10 10 9 8
16 16 17 17 16 16 15 14 13 13 13 13 13 13 13 11 6 6 4 5 8 10 9 5 5 5 3 2 4 6 6 6 10 9 9 5 15 14 10 9 7 7 9 9 7
16 16 16 16 16 15 14 13 13 12 12 12 11 12 11 6 3 4 3 6 9 8 11 4 4 1 2 2 2 3 6 6 5 4 7 7 8 11 11 4 7 6 6 10 8
17 17 17 16 16 16 15 14 14 13 12 10 9 8 7 4 7 5 3 6 8 6 6 6 4 2 1 3 3 7 5 1 6 1 1 0 8 10 9 6 7 7 8 5 6
19 18 18 17 16 16 15 15 14 12 11 9 6 4 4 4 1 3 3 5 6 6 5 7 6 6 4 4 4 4 1 5 1 5 1 7 8 5 8 6 9 10 10 9 10
18 18 17 16 16 16 15 14 13 11 8 5 3 4 5 6 2 4 2 3 4 7 2 6 6 6 4 2 1 3 5 7 6 6 5 14 10 7 6 8 9 10 9 9 10
19 19 18 17 16 16 16 13 11 5 1 3 4 5 4 1 5 1 3 3 1 2 4 4 7 3 4 4 3 4 5 6 4 7 1 1 6 6 6 8 9 10 9 8 10
19 19 18 17 16 16 15 12 7 2 3 5 5 5 5 2 2 2 4 3 2 1 1 2 4 3 2 5 5 7 5 6 5 2 4 7 8 7 8 8 8 9 9 8 9
18 18 17 16 15 14 12 7 4 4 5 7 7 2 2 3 3 3 2 4 3 2 5 4 4 3 4 6 2 4 6 4 8 3 2 11 9 7 7 9 9 9 9 9 9
18 17 16 16 15 13 9 3 4 3 8 6 7 8 6 4 3 2 1 3 3 5 3 4 3 1 9 8 7 8 7 6 8 3 2 8 8 7 7 8 8 9 9 9 9
19 18 16 15 14 12 5 3 4 4 6 4 5 7 3 4 2 5 4 4 2 4 1 3 1 6 5 4 5 5 5 3 6 4 2 8 8 7 8 6 8 8 9 9 10
19 18 16 14 13 5 8 4 3 5 3 4 3 4 2 6 6 7 9 4 5 4 1 6 5 3 3 1 5 5 5 5 4 5 6 8 7 8 7 8 8 9 9 9 10
17 17 16 14 4 1 4 3 2 3 4 5 3 3 3 2 3 3 4 2 3 5 5 3 3 2 1 4 4 4 6 3 2 3 2 8 0 8 9 8 9 8 8 9 9
16 15 16 9 4 1 3 3 3 3 3 1 4 2 1 2 2 2 2 4 5 6 2 3 1 1 4 4 4 3 3 3 3 5 6 7 2 5 10 8 8 7 8 9 9
16 15 14 5 2 2 3 2 3 3 2 4 2 2 5 1 2 2 1 3 1 4 5 4 1 3 4 3 3 1 4 5 3 3 4 11 9 7 6 13 8 8 8 9 9
13 12 9 6 3 3 2 3 3 4 1 6 2 1 1 2 4 2 5 6 4 4 6 5 5 4 2 4 3 3 4 2 3 2 3 6 3 5 8 10 11 9 8 8 9
10 7 3 3 3 4 4 4 4 3 5 2 1 3 4 1 3 1 4 4 9 6 4 3 3 4 2 2 3 6 2 2 4 2 1 2 3 5 10 10 10 9 8 8 8
9 4 2 4 2 3 4 4 3 5 2 1 3 5 5 3 2 4 5 4 5 7 4 5 4 4 5 3 3 2 2 3 5 6 2 5 5 5 9 8 8 8 8 7 7
4 2 3 2 0 3 3 5 3 4 2 2 4 1 2 5 3 3 4 3 3 5 6 3 3 1 3 2 3 3 2 1 2 3 4 4 6 3 10 9 8 8 8 7 7
3 3 3 1 2 4 3 5 5 3 5 5 4 1 4 2 4 1 5 3 6 6 6 5 3 3 3 1 5 1 2 4 1 2 2 3 2 6 9 10 9 8 8 7 7
3 2 2 2 3 2 3 4 3 3 2 2 2 4 4 1 2 1 3 6 6 5 5 5 4 4 4 3 0 1 4 2 1 5 4 3 2 7 4 10 9 10 8 7 6
2 2 2 2 1 4 5 4 5 2 4 2 2 4 2 2 1 2 7 3 6 5 3 5 3 4 4 3 1 1 3 4 4 1 4 0 0 4 3 8 10 10 8 6 5
1 2 1 1 1 4 5 5 4 4 2 2 3 2 2 3 1 3 5 2 2 5 4 4 4 4 3 1 1 2 5 3 2 1 4 3 6 4 2 7 7 8 7 7 7
3 2 0 1 3 4 3 4 7 3 2 2 2 3 2 2 2 3 4 4 2 2 3 3 4 4 6 7 3 6 7 6 5 6 3 3 5 3 6 5 7 8 6 6 6
1 4 2 2 2 7 1 3 6 3 3 3 2 3 1 4 7 3 3 4 5 1 3 2 2 6 5 4 2 7 7 6 5 5 6 6 4 6 7 7 6 5 5 4 5
2 1 0 1 2 2 2 5 6 9 3 5 5 4 8 6 6 6 5 4 4 4 3 3 3 1 3 1 4 7 2 8 3 3 3 2 4 2 1 3 2 4 5 6 6
Wind_Direction
339 337 337 335 334 336 335 332 329 327 323 322 320 318 318 322 309 216 58 351 335 322 322 273 260 303 280 94 285 280 281 88 12 71 85 167 109 59 265 93 60 60 70 107 128
335 335 334 332 332 330 327 322 320 318 315 313 314 318 318 330 285 75 2 359 337 329 313 302 32 279 108 177 268 250 58 60 35 36 82 49 50 91 187 70 51 84 89 109 133
336 335 332 331 327 321 316 317 315 314 312 309 309 311 320 321 257 75 357 337 325 314 288 311 281 299 87 305 340 347 99 125 58 15 347 96 69 43 27 49 27 2 126 137 161
334 331 329 326 321 318 316 313 310 307 302 299 301 306 316 266 92 76 315 314 305 287 277 275 252 271 297 91 353 123 46 18 106 42 356 33 70 70 51 14 31 16 19 143 176
333 331 330 328 326 322 319 314 308 303 296 289 290 310 297 191 64 127 292 267 268 290 10 342 324 321 214 93 244 89 100 83 95 112 62 32 40 88 39 10 48 38 33 19 177
333 333 333 331 327 321 318 312 308 303 293 280 276 303 262 136 277 59 348 264 1 325 26 358 19 345 22 29 330 58 51 100 120 120 121 88 45 55 0 12 47 58 41 35 12
334 333 333 331 326 321 319 317 317 310 299 252 224 255 304 97 46 359 236 38 331 358 31 25 350 299 6 148 74 171 155 134 139 151 120 119 58 45 342 46 49 58 51 57 29
336 336 336 333 329 328 322 320 317 323 288 177 187 252 64 47 354 271 242 140 262 81 44 348 337 338 301 74 223 215 256 169 130 160 199 319 100 52 9 61 52 55 49 48 45
337 336 336 333 329 326 320 315 294 272 241 178 213 229 105 160 216 356 335 329 58 182 30 299 265 318 142 232 196 220 245 160 143 336 144 193 125 69 19 53 56 51 41 37 43
336 336 336 332 327 322 319 285 264 279 240 225 268 218 183 80 49 313 99 300 294 306 238 222 228 231 223 224 294 263 218 85 113 83 94 73 100 76 49 51 53 49 40 31 38
337 336 334 329 322 316 322 207 206 174 40 33 28 89 102 102 197 137 4 234 229 232 262 179 273 338 41 30 348 338 8 35 93 31 39 106 102 91 71 53 57 52 40 31 33
337 334 331 324 318 313 295 347 56 350 103 102 117 86 45 338 171 86 278 267 196 279 93 226 174 57 58 22 331 331 305 107 80 151 230 139 122 102 94 77 64 61 49 42 29
336 330 326 320 318 304 60 53 332 337 194 74 14 60 13 303 30 45 353 358 304 275 311 308 72 43 11 305 292 225 330 17 66 168 261 155 154 143 119 106 82 60 62 44 48
335 330 325 323 303 355 68 360 341 310 207 138 166 91 194 330 110 4 357 332 225 355 347 37 66 349 210 252 20 335 4 352 95 194 255 167 213 163 142 108 78 69 56 57 41
335 329 324 331 326 47 29 324 312 244 237 6 94 23 173 341 100 94 267 248 3 2 293 58 135 226 274 36 350 99 332 343 313 286 310 196 255 117 140 127 100 79 72 60 56
335 327 322 285 106 51 318 299 248 231 155 122 119 183 185 130 100 160 195 175 334 282 213 85 103 310 33 82 24 59 259 219 257 233 252 223 174 174 190 141 120 99 78 73 62
330 321 328 299 23 360 261 219 228 280 282 139 116 247 343 110 128 1 77 50 18 311 196 166 167 112 263 225 169 224 274 239 251 199 244 9 130 119 103 110 116 110 92 79 69
326 320 234 61 1 311 237 222 256 37 45 54 184 214 237 154 125 151 227 171 57 347 298 291 206 165 141 358 7 222 347 299 295 36 142 273 189 143 96 89 93 97 100 83 71
319 207 171 56 27 292 267 236 41 44 42 198 174 237 158 178 297 197 50 50 59 14 350 345 107 98 44 347 9 81 201 346 311 279 248 144 88 84 122 125 131 117 97 86 84
288 231 91 10 223 264 258 79 84 33 331 236 245 312 266 133 234 228 144 13 35 30 341 32 273 257 108 257 208 246 341 306 236 268 260 199 121 116 167 157 141 132 114 101 86
254 246 67 60 221 234 324 55 100 57 346 342 1 338 7 58 300 90 67 69 9 326 309 347 243 154 161 180 19 223 225 235 241 259 254 322 84 351 176 161 154 128 112 105 90
295 233 357 264 241 344 68 33 331 88 22 29 338 5 2 18 238 50 89 39 351 309 340 71 324 301 74 78 333 308 341 327 219 329 324 159 220 331 109 136 139 119 112 100 98
288 76 188 260 218 107 125 86 45 148 15 19 80 350 347 45 309 40 86 29 359 21 29 355 229 290 134 147 215 61 39 353 344 246 244 318 165 7 23 114 118 123 133 123 108
297 183 122 96 213 111 162 150 113 7 93 44 90 276 208 159 36 124 125 101 350 23 328 297 294 284 302 31 72 203 181 138 7 298 328 310 138 143 91 121 117 118 122 119 98
9 94 249 80 57 65 46 146 138 134 47 300 128 321 332 171 184 132 57 140 143 351 249 359 275 311 324 314 263 266 286 292 246 267 244 359 5 51 159 156 146 133 130 121 111
135 146 157 72 317 120 117 156 168 106 358 131 307 88 290 18 36 44 11 9 46 89 350 45 290 351 277 220 10 277 271 269 267 282 296 297 300 36 34 50 84 121 154 115 124
277 124 353 269 166 245 57 113 125 125 54 23 101 141 97 76 25 27 29 58 44 339 354 316 322 339 272 147 293 270 268 206 109 34 23 297 74 69 100 311 184 252 153 190 118